owner,sensor,date,latitude,longitude,vertical_datum,wind_speed,wind_to_direction,wind_speed_of_gust,qcFlag 
TCOON,ioos:station:TCOON:013:1,2017-12-01T00:00:00Z,27.4847,-97.3181,0.0,4.1,91.0,4.7,'11111222,11111222,11111222' 
TCOON,ioos:station:TCOON:013:1,2017-12-01T00:06:00Z,27.4847,-97.3181,0.0,4.1,92.0,4.6,'11111222,11111222,11111222' 
TCOON,ioos:station:TCOON:013:1,2017-12-01T00:12:00Z,27.4847,-97.3181,0.0,4.2,95.0,4.7,'11111222,11111222,11111222' 
TCOON,ioos:station:TCOON:013:1,2017-12-01T00:18:00Z,27.4847,-97.3181,0.0,3.7,94.0,4.4,'1111122,1111122,1111122' 
TCOON,ioos:station:TCOON:013:1,2017-12-01T00:24:00Z,27.4847,-97.3181,0.0,3.6,90.0,4.6,'11111222,11111222,11111222' 
TCOON,ioos:station:TCOON:013:1,2017-12-01T00:30:00Z,27.4847,-97.3181,0.0,3.5,88.0,4.0,'11111222,11111222,11111222' 
TCOON,ioos:station:TCOON:013:1,2017-12-01T00:36:00Z,27.4847,-97.3181,0.0,3.4,87.0,4.1,'11111222,11111222,11111222' 
TCOON,ioos:station:TCOON:013:1,2017-12-01T00:42:00Z,27.4847,-97.3181,0.0,3.3,87.0,4.0,'11111222,11111222,11111222' 
TCOON,ioos:station:TCOON:013:1,2017-12-01T00:48:00Z,27.4847,-97.3181,0.0,3.3,90.0,4.2,'11111222,11111222,11111222' 
TCOON,ioos:station:TCOON:013:1,2017-12-01T00:54:00Z,27.4847,-97.3181,0.0,3.0,95.0,4.1,'11111222,11111222,11111222' 
TCOON,ioos:station:TCOON:013:1,2017-12-01T01:00:00Z,27.4847,-97.3181,0.0,3.0,92.0,3.5,'11111222,11111222,11111222' 
TCOON,ioos:station:TCOON:013:1,2017-12-01T01:06:00Z,27.4847,-97.3181,0.0,2.5,95.0,3.3,'11111222,11111222,11111222' 
TCOON,ioos:station:TCOON:013:1,2017-12-01T01:12:00Z,27.4847,-97.3181,0.0,2.6,92.0,3.5,'11111222,11111222,11111222' 
TCOON,ioos:station:TCOON:013:1,2017-12-01T01:18:00Z,27.4847,-97.3181,0.0,2.3,98.0,3.2,'1111122,1111122,1111122' 
TCOON,ioos:station:TCOON:013:1,2017-12-01T01:24:00Z,27.4847,-97.3181,0.0,2.2,84.0,3.1,'11111222,11111222,11111222' 
TCOON,ioos:station:TCOON:013:1,2017-12-01T01:30:00Z,27.4847,-97.3181,0.0,2.5,90.0,3.2,'11111222,11111222,11111222' 
TCOON,ioos:station:TCOON:013:1,2017-12-01T01:36:00Z,27.4847,-97.3181,0.0,2.1,96.0,2.8,'11111222,11111222,11111222' 
TCOON,ioos:station:TCOON:013:1,2017-12-01T01:42:00Z,27.4847,-97.3181,0.0,2.3,95.0,2.8,'11111222,11111222,11111222' 
TCOON,ioos:station:TCOON:013:1,2017-12-01T01:48:00Z,27.4847,-97.3181,0.0,2.5,102.0,2.9,'11111222,11111222,11111222' 
TCOON,ioos:station:TCOON:013:1,2017-12-01T01:54:00Z,27.4847,-97.3181,0.0,2.2,104.0,2.7,'11111222,11111222,11111222' 
TCOON,ioos:station:TCOON:013:1,2017-12-01T02:00:00Z,27.4847,-97.3181,0.0,2.1,97.0,2.7,'11111222,11111222,11111222' 
TCOON,ioos:station:TCOON:013:1,2017-12-01T02:06:00Z,27.4847,-97.3181,0.0,2.2,99.0,2.7,'11111222,11111222,11111222' 
TCOON,ioos:station:TCOON:013:1,2017-12-01T02:12:00Z,27.4847,-97.3181,0.0,2.1,102.0,2.5,'11111222,11111222,11111222' 
TCOON,ioos:station:TCOON:013:1,2017-12-01T02:18:00Z,27.4847,-97.3181,0.0,2.2,97.0,2.6,'1111122,1111122,1111122' 
TCOON,ioos:station:TCOON:013:1,2017-12-01T02:24:00Z,27.4847,-97.3181,0.0,2.0,93.0,2.9,'11111222,11111222,11111222' 
TCOON,ioos:station:TCOON:013:1,2017-12-01T02:30:00Z,27.4847,-97.3181,0.0,2.3,94.0,2.8,'11111222,11111222,11111222' 
TCOON,ioos:station:TCOON:013:1,2017-12-01T02:36:00Z,27.4847,-97.3181,0.0,1.9,95.0,2.5,'11111222,11111222,11111222' 
TCOON,ioos:station:TCOON:013:1,2017-12-01T02:42:00Z,27.4847,-97.3181,0.0,2.4,91.0,2.9,'11111222,11111222,11111222' 
TCOON,ioos:station:TCOON:013:1,2017-12-01T02:48:00Z,27.4847,-97.3181,0.0,2.2,96.0,2.7,'11111222,11111222,11111222' 
TCOON,ioos:station:TCOON:013:1,2017-12-01T02:54:00Z,27.4847,-97.3181,0.0,1.8,100.0,2.5,'11111222,11111222,11111222' 
TCOON,ioos:station:TCOON:013:1,2017-12-01T03:00:00Z,27.4847,-97.3181,0.0,1.7,99.0,2.3,'11111222,11111222,11111222' 
TCOON,ioos:station:TCOON:013:1,2017-12-01T03:06:00Z,27.4847,-97.3181,0.0,2.0,98.0,2.4,'11111222,11111222,11111222' 
TCOON,ioos:station:TCOON:013:1,2017-12-01T03:12:00Z,27.4847,-97.3181,0.0,2.1,97.0,2.4,'11111222,11111222,11111222' 
TCOON,ioos:station:TCOON:013:1,2017-12-01T03:18:00Z,27.4847,-97.3181,0.0,2.2,105.0,2.6,'1111122,1111122,1111122' 
TCOON,ioos:station:TCOON:013:1,2017-12-01T03:24:00Z,27.4847,-97.3181,0.0,2.0,107.0,2.3,'11111222,11111222,11111222' 
TCOON,ioos:station:TCOON:013:1,2017-12-01T03:30:00Z,27.4847,-97.3181,0.0,2.0,113.0,2.7,'11111222,11111222,11111222' 
TCOON,ioos:station:TCOON:013:1,2017-12-01T03:36:00Z,27.4847,-97.3181,0.0,1.9,111.0,2.4,'11111222,11111222,11111222' 
TCOON,ioos:station:TCOON:013:1,2017-12-01T03:42:00Z,27.4847,-97.3181,0.0,2.1,113.0,2.4,'11111222,11111222,11111222' 
TCOON,ioos:station:TCOON:013:1,2017-12-01T03:48:00Z,27.4847,-97.3181,0.0,2.2,115.0,2.4,'11111222,11111222,11111222' 
TCOON,ioos:station:TCOON:013:1,2017-12-01T03:54:00Z,27.4847,-97.3181,0.0,2.0,113.0,2.4,'11111222,11111222,11111222' 
TCOON,ioos:station:TCOON:013:1,2017-12-01T04:00:00Z,27.4847,-97.3181,0.0,1.9,111.0,2.4,'11111222,11111222,11111222' 
TCOON,ioos:station:TCOON:013:1,2017-12-01T04:06:00Z,27.4847,-97.3181,0.0,2.0,111.0,2.3,'11111222,11111222,11111222' 
TCOON,ioos:station:TCOON:013:1,2017-12-01T04:12:00Z,27.4847,-97.3181,0.0,2.1,107.0,2.6,'11111222,11111222,11111222' 
TCOON,ioos:station:TCOON:013:1,2017-12-01T04:18:00Z,27.4847,-97.3181,0.0,2.3,108.0,2.8,'1111122,1111122,1111122' 
TCOON,ioos:station:TCOON:013:1,2017-12-01T04:24:00Z,27.4847,-97.3181,0.0,2.4,105.0,3.0,'11111222,11111222,11111222' 
TCOON,ioos:station:TCOON:013:1,2017-12-01T04:30:00Z,27.4847,-97.3181,0.0,2.3,102.0,2.9,'11111222,11111222,11111222' 
TCOON,ioos:station:TCOON:013:1,2017-12-01T04:36:00Z,27.4847,-97.3181,0.0,2.5,101.0,2.9,'11111222,11111222,11111222' 
TCOON,ioos:station:TCOON:013:1,2017-12-01T04:42:00Z,27.4847,-97.3181,0.0,2.4,102.0,3.1,'11111222,11111222,11111222' 
TCOON,ioos:station:TCOON:013:1,2017-12-01T04:48:00Z,27.4847,-97.3181,0.0,2.4,100.0,3.0,'11111222,11111222,11111222' 
TCOON,ioos:station:TCOON:013:1,2017-12-01T04:54:00Z,27.4847,-97.3181,0.0,2.4,100.0,2.8,'11111222,11111222,11111222' 
TCOON,ioos:station:TCOON:013:1,2017-12-01T05:00:00Z,27.4847,-97.3181,0.0,2.4,102.0,2.8,'11111222,11111222,11111222' 
TCOON,ioos:station:TCOON:013:1,2017-12-01T05:06:00Z,27.4847,-97.3181,0.0,2.5,103.0,2.8,'11111222,11111222,11111222' 
TCOON,ioos:station:TCOON:013:1,2017-12-01T05:12:00Z,27.4847,-97.3181,0.0,2.4,104.0,2.8,'11111222,11111222,11111222' 
TCOON,ioos:station:TCOON:013:1,2017-12-01T05:18:00Z,27.4847,-97.3181,0.0,2.3,104.0,2.9,'1111122,1111122,1111122' 
TCOON,ioos:station:TCOON:013:1,2017-12-01T05:24:00Z,27.4847,-97.3181,0.0,2.5,108.0,2.9,'11111222,11111222,11111222' 
TCOON,ioos:station:TCOON:013:1,2017-12-01T05:30:00Z,27.4847,-97.3181,0.0,2.4,104.0,2.8,'11111222,11111222,11111222' 
TCOON,ioos:station:TCOON:013:1,2017-12-01T05:36:00Z,27.4847,-97.3181,0.0,2.2,102.0,2.9,'11111222,11111222,11111222' 
TCOON,ioos:station:TCOON:013:1,2017-12-01T05:42:00Z,27.4847,-97.3181,0.0,2.5,98.0,2.9,'11111222,11111222,11111222' 
TCOON,ioos:station:TCOON:013:1,2017-12-01T05:48:00Z,27.4847,-97.3181,0.0,2.7,95.0,3.1,'11111222,11111222,11111222' 
TCOON,ioos:station:TCOON:013:1,2017-12-01T05:54:00Z,27.4847,-97.3181,0.0,2.7,96.0,3.3,'11111222,11111222,11111222' 
TCOON,ioos:station:TCOON:013:1,2017-12-01T06:00:00Z,27.4847,-97.3181,0.0,2.5,89.0,3.1,'11111222,11111222,11111222' 
TCOON,ioos:station:TCOON:013:1,2017-12-01T06:06:00Z,27.4847,-97.3181,0.0,2.2,90.0,2.8,'11111222,11111222,11111222' 
TCOON,ioos:station:TCOON:013:1,2017-12-01T06:12:00Z,27.4847,-97.3181,0.0,2.3,92.0,3.0,'11111222,11111222,11111222' 
TCOON,ioos:station:TCOON:013:1,2017-12-01T06:18:00Z,27.4847,-97.3181,0.0,2.2,91.0,2.6,'1111122,1111122,1111122' 
TCOON,ioos:station:TCOON:013:1,2017-12-01T06:24:00Z,27.4847,-97.3181,0.0,2.2,91.0,2.6,'11111222,11111222,11111222' 
TCOON,ioos:station:TCOON:013:1,2017-12-01T06:30:00Z,27.4847,-97.3181,0.0,2.2,94.0,2.5,'11111222,11111222,11111222' 
TCOON,ioos:station:TCOON:013:1,2017-12-01T06:36:00Z,27.4847,-97.3181,0.0,1.8,93.0,2.3,'11111222,11111222,11111222' 
TCOON,ioos:station:TCOON:013:1,2017-12-01T06:42:00Z,27.4847,-97.3181,0.0,1.7,97.0,2.1,'11111222,11111222,11111222' 
TCOON,ioos:station:TCOON:013:1,2017-12-01T06:48:00Z,27.4847,-97.3181,0.0,1.7,93.0,2.2,'11111222,11111222,11111222' 
TCOON,ioos:station:TCOON:013:1,2017-12-01T06:54:00Z,27.4847,-97.3181,0.0,1.9,92.0,2.2,'11111222,11111222,11111222' 
TCOON,ioos:station:TCOON:013:1,2017-12-01T07:00:00Z,27.4847,-97.3181,0.0,1.8,98.0,2.1,'11111222,11111222,11111222' 
TCOON,ioos:station:TCOON:013:1,2017-12-01T07:06:00Z,27.4847,-97.3181,0.0,1.6,93.0,2.2,'11111222,11111222,11111222' 
TCOON,ioos:station:TCOON:013:1,2017-12-01T07:12:00Z,27.4847,-97.3181,0.0,1.7,93.0,2.4,'11111222,11111222,11111222' 
TCOON,ioos:station:TCOON:013:1,2017-12-01T07:18:00Z,27.4847,-97.3181,0.0,1.5,92.0,2.0,'1111122,1111122,1111122' 
TCOON,ioos:station:TCOON:013:1,2017-12-01T07:24:00Z,27.4847,-97.3181,0.0,1.7,90.0,2.0,'11111222,11111222,11111222' 
TCOON,ioos:station:TCOON:013:1,2017-12-01T07:30:00Z,27.4847,-97.3181,0.0,2.0,89.0,2.3,'11111222,11111222,11111222' 
TCOON,ioos:station:TCOON:013:1,2017-12-01T07:36:00Z,27.4847,-97.3181,0.0,2.3,85.0,2.7,'11111222,11111222,11111222' 
TCOON,ioos:station:TCOON:013:1,2017-12-01T07:42:00Z,27.4847,-97.3181,0.0,2.2,74.0,2.6,'11111222,11111222,11111222' 
TCOON,ioos:station:TCOON:013:1,2017-12-01T07:48:00Z,27.4847,-97.3181,0.0,2.4,67.0,2.6,'11111222,11111222,11111222' 
TCOON,ioos:station:TCOON:013:1,2017-12-01T07:54:00Z,27.4847,-97.3181,0.0,2.2,66.0,2.7,'11111222,11111222,11111222' 
TCOON,ioos:station:TCOON:013:1,2017-12-01T08:00:00Z,27.4847,-97.3181,0.0,2.3,58.0,2.7,'11111222,11111222,11111222' 
TCOON,ioos:station:TCOON:013:1,2017-12-01T08:06:00Z,27.4847,-97.3181,0.0,2.1,55.0,2.5,'11111222,11111222,11111222' 
TCOON,ioos:station:TCOON:013:1,2017-12-01T08:12:00Z,27.4847,-97.3181,0.0,1.9,53.0,2.2,'11111222,11111222,11111222' 
TCOON,ioos:station:TCOON:013:1,2017-12-01T08:18:00Z,27.4847,-97.3181,0.0,1.9,52.0,2.3,'1111122,1111122,1111122' 
TCOON,ioos:station:TCOON:013:1,2017-12-01T08:24:00Z,27.4847,-97.3181,0.0,1.8,51.0,2.4,'11111222,11111222,11111222' 
TCOON,ioos:station:TCOON:013:1,2017-12-01T08:30:00Z,27.4847,-97.3181,0.0,1.7,54.0,2.5,'11111222,11111222,11111222' 
TCOON,ioos:station:TCOON:013:1,2017-12-01T08:36:00Z,27.4847,-97.3181,0.0,1.7,60.0,2.4,'11111222,11111222,11111222' 
TCOON,ioos:station:TCOON:013:1,2017-12-01T08:42:00Z,27.4847,-97.3181,0.0,1.9,57.0,2.4,'11111222,11111222,11111222' 
TCOON,ioos:station:TCOON:013:1,2017-12-01T08:48:00Z,27.4847,-97.3181,0.0,1.5,47.0,2.2,'11111222,11111222,11111222' 
TCOON,ioos:station:TCOON:013:1,2017-12-01T08:54:00Z,27.4847,-97.3181,0.0,1.4,51.0,1.7,'11111222,11111222,11111222' 
TCOON,ioos:station:TCOON:013:1,2017-12-01T09:00:00Z,27.4847,-97.3181,0.0,1.3,37.0,1.7,'11111222,11111222,11111222' 
TCOON,ioos:station:TCOON:013:1,2017-12-01T09:06:00Z,27.4847,-97.3181,0.0,1.1,32.0,1.4,'11111222,11111222,11111222' 
TCOON,ioos:station:TCOON:013:1,2017-12-01T09:12:00Z,27.4847,-97.3181,0.0,1.0,23.0,1.6,'11111222,11111222,11111222' 
TCOON,ioos:station:TCOON:013:1,2017-12-01T09:18:00Z,27.4847,-97.3181,0.0,1.2,25.0,1.5,'1111122,1111122,1111122' 
TCOON,ioos:station:TCOON:013:1,2017-12-01T09:24:00Z,27.4847,-97.3181,0.0,1.9,334.0,2.6,'11111222,11111222,11111222' 
TCOON,ioos:station:TCOON:013:1,2017-12-01T09:30:00Z,27.4847,-97.3181,0.0,2.6,321.0,3.0,'11111222,11111222,11111222' 
TCOON,ioos:station:TCOON:013:1,2017-12-01T09:36:00Z,27.4847,-97.3181,0.0,2.6,323.0,2.9,'11111222,11111222,11111222' 
TCOON,ioos:station:TCOON:013:1,2017-12-01T09:42:00Z,27.4847,-97.3181,0.0,2.4,331.0,2.7,'11111222,11111222,11111222' 
TCOON,ioos:station:TCOON:013:1,2017-12-01T09:48:00Z,27.4847,-97.3181,0.0,2.5,330.0,3.1,'11111222,11111222,11111222' 
TCOON,ioos:station:TCOON:013:1,2017-12-01T09:54:00Z,27.4847,-97.3181,0.0,2.5,327.0,2.7,'11111222,11111222,11111222' 
TCOON,ioos:station:TCOON:013:1,2017-12-01T10:00:00Z,27.4847,-97.3181,0.0,2.9,331.0,3.1,'11111222,11111222,11111222' 
TCOON,ioos:station:TCOON:013:1,2017-12-01T10:06:00Z,27.4847,-97.3181,0.0,2.6,337.0,3.3,'11111222,11111222,11111222' 
TCOON,ioos:station:TCOON:013:1,2017-12-01T10:12:00Z,27.4847,-97.3181,0.0,2.4,346.0,3.0,'11111222,11111222,11111222' 
TCOON,ioos:station:TCOON:013:1,2017-12-01T10:18:00Z,27.4847,-97.3181,0.0,2.0,6.0,2.6,'1111122,1111122,1111122' 
TCOON,ioos:station:TCOON:013:1,2017-12-01T10:24:00Z,27.4847,-97.3181,0.0,2.3,357.0,2.5,'11111222,11111222,11111222' 
TCOON,ioos:station:TCOON:013:1,2017-12-01T10:30:00Z,27.4847,-97.3181,0.0,2.3,349.0,3.0,'11111222,11111222,11111222' 
TCOON,ioos:station:TCOON:013:1,2017-12-01T10:36:00Z,27.4847,-97.3181,0.0,1.8,7.0,2.1,'11111222,11111222,11111222' 
TCOON,ioos:station:TCOON:013:1,2017-12-01T10:42:00Z,27.4847,-97.3181,0.0,1.7,7.0,1.9,'11111222,11111222,11111222' 
TCOON,ioos:station:TCOON:013:1,2017-12-01T10:48:00Z,27.4847,-97.3181,0.0,1.8,358.0,2.0,'11111222,11111222,11111222' 
TCOON,ioos:station:TCOON:013:1,2017-12-01T10:54:00Z,27.4847,-97.3181,0.0,1.9,347.0,2.1,'11111222,11111222,11111222' 
TCOON,ioos:station:TCOON:013:1,2017-12-01T11:00:00Z,27.4847,-97.3181,0.0,2.4,332.0,2.8,'11111222,11111222,11111222' 
TCOON,ioos:station:TCOON:013:1,2017-12-01T11:06:00Z,27.4847,-97.3181,0.0,2.5,11.0,2.7,'11111222,11111222,11111222' 
TCOON,ioos:station:TCOON:013:1,2017-12-01T11:12:00Z,27.4847,-97.3181,0.0,2.1,341.0,3.1,'11111222,11111222,11111222' 
TCOON,ioos:station:TCOON:013:1,2017-12-01T11:18:00Z,27.4847,-97.3181,0.0,2.0,10.0,2.2,'1111122,1111122,1111122' 
TCOON,ioos:station:TCOON:013:1,2017-12-01T11:24:00Z,27.4847,-97.3181,0.0,1.8,340.0,2.1,'11111222,11111222,11111222' 
TCOON,ioos:station:TCOON:013:1,2017-12-01T11:30:00Z,27.4847,-97.3181,0.0,2.1,318.0,2.5,'11111222,11111222,11111222' 
TCOON,ioos:station:TCOON:013:1,2017-12-01T11:36:00Z,27.4847,-97.3181,0.0,1.7,327.0,2.0,'11111222,11111222,11111222' 
TCOON,ioos:station:TCOON:013:1,2017-12-01T11:42:00Z,27.4847,-97.3181,0.0,1.8,348.0,2.2,'11111222,11111222,11111222' 
TCOON,ioos:station:TCOON:013:1,2017-12-01T11:48:00Z,27.4847,-97.3181,0.0,1.5,22.0,2.1,'11111222,11111222,11111222' 
TCOON,ioos:station:TCOON:013:1,2017-12-01T11:54:00Z,27.4847,-97.3181,0.0,2.1,35.0,2.5,'11111222,11111222,11111222' 
TCOON,ioos:station:TCOON:013:1,2017-12-01T12:00:00Z,27.4847,-97.3181,0.0,2.1,33.0,2.4,'11111222,11111222,11111222' 
TCOON,ioos:station:TCOON:013:1,2017-12-01T12:06:00Z,27.4847,-97.3181,0.0,2.8,36.0,3.1,'11111222,11111222,11111222' 
TCOON,ioos:station:TCOON:013:1,2017-12-01T12:12:00Z,27.4847,-97.3181,0.0,2.4,42.0,2.9,'11111222,11111222,11111222' 
TCOON,ioos:station:TCOON:013:1,2017-12-01T12:18:00Z,27.4847,-97.3181,0.0,2.1,42.0,2.7,'1111122,1111122,1111122' 
TCOON,ioos:station:TCOON:013:1,2017-12-01T12:24:00Z,27.4847,-97.3181,0.0,2.3,37.0,2.5,'11111222,11111222,11111222' 
TCOON,ioos:station:TCOON:013:1,2017-12-01T12:30:00Z,27.4847,-97.3181,0.0,2.5,40.0,2.8,'11111222,11111222,11111222' 
TCOON,ioos:station:TCOON:013:1,2017-12-01T12:36:00Z,27.4847,-97.3181,0.0,2.5,43.0,3.1,'11111222,11111222,11111222' 
TCOON,ioos:station:TCOON:013:1,2017-12-01T12:42:00Z,27.4847,-97.3181,0.0,2.9,32.0,3.3,'11111222,11111222,11111222' 
TCOON,ioos:station:TCOON:013:1,2017-12-01T12:48:00Z,27.4847,-97.3181,0.0,3.2,30.0,3.8,'11111222,11111222,11111222' 
TCOON,ioos:station:TCOON:013:1,2017-12-01T12:54:00Z,27.4847,-97.3181,0.0,3.4,31.0,4.0,'11111222,11111222,11111222' 
TCOON,ioos:station:TCOON:013:1,2017-12-01T13:00:00Z,27.4847,-97.3181,0.0,3.4,31.0,4.2,'11111222,11111222,11111222' 
TCOON,ioos:station:TCOON:013:1,2017-12-01T13:06:00Z,27.4847,-97.3181,0.0,3.5,31.0,4.3,'11111222,11111222,11111222' 
TCOON,ioos:station:TCOON:013:1,2017-12-01T13:12:00Z,27.4847,-97.3181,0.0,3.5,31.0,4.2,'11111222,11111222,11111222' 
TCOON,ioos:station:TCOON:013:1,2017-12-01T13:18:00Z,27.4847,-97.3181,0.0,3.4,33.0,4.1,'1111122,1111122,1111122' 
TCOON,ioos:station:TCOON:013:1,2017-12-01T13:24:00Z,27.4847,-97.3181,0.0,3.8,34.0,4.3,'11111222,11111222,11111222' 
TCOON,ioos:station:TCOON:013:1,2017-12-01T13:30:00Z,27.4847,-97.3181,0.0,3.4,37.0,4.3,'11111222,11111222,11111222' 
TCOON,ioos:station:TCOON:013:1,2017-12-01T13:36:00Z,27.4847,-97.3181,0.0,3.6,41.0,4.3,'11111222,11111222,11111222' 
TCOON,ioos:station:TCOON:013:1,2017-12-01T13:42:00Z,27.4847,-97.3181,0.0,3.6,33.0,4.3,'11111222,11111222,11111222' 
TCOON,ioos:station:TCOON:013:1,2017-12-01T13:48:00Z,27.4847,-97.3181,0.0,3.8,37.0,4.4,'11111222,11111222,11111222' 
TCOON,ioos:station:TCOON:013:1,2017-12-01T13:54:00Z,27.4847,-97.3181,0.0,3.7,35.0,4.4,'11111222,11111222,11111222' 
TCOON,ioos:station:TCOON:013:1,2017-12-01T14:00:00Z,27.4847,-97.3181,0.0,4.0,37.0,4.9,'11111222,11111222,11111222' 
TCOON,ioos:station:TCOON:013:1,2017-12-01T14:06:00Z,27.4847,-97.3181,0.0,4.6,31.0,5.3,'11111222,11111222,11111222' 
TCOON,ioos:station:TCOON:013:1,2017-12-01T14:12:00Z,27.4847,-97.3181,0.0,4.2,29.0,4.8,'11111222,11111222,11111222' 
TCOON,ioos:station:TCOON:013:1,2017-12-01T14:18:00Z,27.4847,-97.3181,0.0,4.7,21.0,5.3,'1111122,1111122,1111122' 
TCOON,ioos:station:TCOON:013:1,2017-12-01T14:24:00Z,27.4847,-97.3181,0.0,4.6,19.0,5.5,'11111222,11111222,11111222' 
TCOON,ioos:station:TCOON:013:1,2017-12-01T14:30:00Z,27.4847,-97.3181,0.0,4.7,20.0,5.2,'11111222,11111222,11111222' 
TCOON,ioos:station:TCOON:013:1,2017-12-01T14:36:00Z,27.4847,-97.3181,0.0,4.5,22.0,5.1,'11111222,11111222,11111222' 
TCOON,ioos:station:TCOON:013:1,2017-12-01T14:42:00Z,27.4847,-97.3181,0.0,4.5,24.0,4.9,'11111222,11111222,11111222' 
TCOON,ioos:station:TCOON:013:1,2017-12-01T14:48:00Z,27.4847,-97.3181,0.0,4.2,22.0,4.8,'11111222,11111222,11111222' 
TCOON,ioos:station:TCOON:013:1,2017-12-01T14:54:00Z,27.4847,-97.3181,0.0,4.1,17.0,4.5,'11111222,11111222,11111222' 
TCOON,ioos:station:TCOON:013:1,2017-12-01T15:00:00Z,27.4847,-97.3181,0.0,3.7,19.0,4.6,'11111222,11111222,11111222' 
TCOON,ioos:station:TCOON:013:1,2017-12-01T15:06:00Z,27.4847,-97.3181,0.0,3.7,18.0,4.2,'11111222,11111222,11111222' 
TCOON,ioos:station:TCOON:013:1,2017-12-01T15:12:00Z,27.4847,-97.3181,0.0,3.5,16.0,4.1,'11111222,11111222,11111222' 
TCOON,ioos:station:TCOON:013:1,2017-12-01T15:18:00Z,27.4847,-97.3181,0.0,3.8,28.0,4.5,'1111122,1111122,1111122' 
TCOON,ioos:station:TCOON:013:1,2017-12-01T15:24:00Z,27.4847,-97.3181,0.0,4.2,47.0,5.3,'11111222,11111222,11111222' 
TCOON,ioos:station:TCOON:013:1,2017-12-01T15:30:00Z,27.4847,-97.3181,0.0,4.7,50.0,5.6,'11111222,11111222,11111222' 
TCOON,ioos:station:TCOON:013:1,2017-12-01T15:36:00Z,27.4847,-97.3181,0.0,4.7,41.0,5.8,'11111222,11111222,11111222' 
TCOON,ioos:station:TCOON:013:1,2017-12-01T15:42:00Z,27.4847,-97.3181,0.0,4.8,40.0,5.6,'11111222,11111222,11111222' 
TCOON,ioos:station:TCOON:013:1,2017-12-01T15:48:00Z,27.4847,-97.3181,0.0,4.7,39.0,5.6,'11111222,11111222,11111222' 
TCOON,ioos:station:TCOON:013:1,2017-12-01T15:54:00Z,27.4847,-97.3181,0.0,5.3,39.0,6.0,'11111222,11111222,11111222' 
TCOON,ioos:station:TCOON:013:1,2017-12-01T16:00:00Z,27.4847,-97.3181,0.0,5.0,55.0,5.7,'11111222,11111222,11111222' 
TCOON,ioos:station:TCOON:013:1,2017-12-01T16:06:00Z,27.4847,-97.3181,0.0,4.5,52.0,5.8,'11111222,11111222,11111222' 
TCOON,ioos:station:TCOON:013:1,2017-12-01T16:12:00Z,27.4847,-97.3181,0.0,5.4,49.0,6.2,'11111222,11111222,11111222' 
TCOON,ioos:station:TCOON:013:1,2017-12-01T16:18:00Z,27.4847,-97.3181,0.0,5.3,56.0,6.4,'1111122,1111122,1111122' 
TCOON,ioos:station:TCOON:013:1,2017-12-01T16:24:00Z,27.4847,-97.3181,0.0,4.8,48.0,6.1,'11111222,11111222,11111222' 
TCOON,ioos:station:TCOON:013:1,2017-12-01T16:30:00Z,27.4847,-97.3181,0.0,5.4,48.0,6.4,'11111222,11111222,11111222' 
TCOON,ioos:station:TCOON:013:1,2017-12-01T16:36:00Z,27.4847,-97.3181,0.0,5.2,42.0,6.2,'11111222,11111222,11111222' 
TCOON,ioos:station:TCOON:013:1,2017-12-01T16:42:00Z,27.4847,-97.3181,0.0,5.6,54.0,6.5,'11111222,11111222,11111222' 
TCOON,ioos:station:TCOON:013:1,2017-12-01T16:48:00Z,27.4847,-97.3181,0.0,4.8,51.0,6.0,'11111222,11111222,11111222' 
TCOON,ioos:station:TCOON:013:1,2017-12-01T16:54:00Z,27.4847,-97.3181,0.0,4.9,50.0,6.5,'11111222,11111222,11111222' 
TCOON,ioos:station:TCOON:013:1,2017-12-01T17:00:00Z,27.4847,-97.3181,0.0,5.0,56.0,5.8,'11111222,11111222,11111222' 
TCOON,ioos:station:TCOON:013:1,2017-12-01T17:06:00Z,27.4847,-97.3181,0.0,4.8,58.0,6.0,'11111222,11111222,11111222' 
TCOON,ioos:station:TCOON:013:1,2017-12-01T17:12:00Z,27.4847,-97.3181,0.0,4.9,56.0,6.2,'11111222,11111222,11111222' 
TCOON,ioos:station:TCOON:013:1,2017-12-01T17:18:00Z,27.4847,-97.3181,0.0,4.7,51.0,5.7,'1111122,1111122,1111122' 
TCOON,ioos:station:TCOON:013:1,2017-12-01T17:24:00Z,27.4847,-97.3181,0.0,4.8,51.0,5.6,'11111222,11111222,11111222' 
TCOON,ioos:station:TCOON:013:1,2017-12-01T17:30:00Z,27.4847,-97.3181,0.0,4.6,54.0,5.9,'11111222,11111222,11111222' 
TCOON,ioos:station:TCOON:013:1,2017-12-01T17:36:00Z,27.4847,-97.3181,0.0,4.9,49.0,5.8,'11111222,11111222,11111222' 
TCOON,ioos:station:TCOON:013:1,2017-12-01T17:42:00Z,27.4847,-97.3181,0.0,4.8,54.0,5.9,'11111222,11111222,11111222' 
TCOON,ioos:station:TCOON:013:1,2017-12-01T17:48:00Z,27.4847,-97.3181,0.0,4.8,47.0,6.2,'11111222,11111222,11111222' 
TCOON,ioos:station:TCOON:013:1,2017-12-01T17:54:00Z,27.4847,-97.3181,0.0,4.7,55.0,5.8,'11111222,11111222,11111222' 
TCOON,ioos:station:TCOON:013:1,2017-12-01T18:00:00Z,27.4847,-97.3181,0.0,4.7,46.0,6.3,'11111222,11111222,11111222' 
TCOON,ioos:station:TCOON:013:1,2017-12-01T18:06:00Z,27.4847,-97.3181,0.0,4.1,57.0,6.2,'11111222,11111222,11111222' 
TCOON,ioos:station:TCOON:013:1,2017-12-01T18:12:00Z,27.4847,-97.3181,0.0,4.0,63.0,5.6,'11111222,11111222,11111222' 
TCOON,ioos:station:TCOON:013:1,2017-12-01T18:18:00Z,27.4847,-97.3181,0.0,3.4,62.0,5.0,'1111122,1111122,1111122' 
TCOON,ioos:station:TCOON:013:1,2017-12-01T18:24:00Z,27.4847,-97.3181,0.0,3.9,69.0,4.7,'11111222,11111222,11111222' 
TCOON,ioos:station:TCOON:013:1,2017-12-01T18:30:00Z,27.4847,-97.3181,0.0,3.8,68.0,5.2,'11111222,11111222,11111222' 
TCOON,ioos:station:TCOON:013:1,2017-12-01T18:36:00Z,27.4847,-97.3181,0.0,4.6,63.0,5.5,'11111222,11111222,11111222' 
TCOON,ioos:station:TCOON:013:1,2017-12-01T18:42:00Z,27.4847,-97.3181,0.0,3.4,76.0,4.8,'11111222,11111222,11111222' 
TCOON,ioos:station:TCOON:013:1,2017-12-01T18:48:00Z,27.4847,-97.3181,0.0,3.9,62.0,4.9,'11111222,11111222,11111222' 
TCOON,ioos:station:TCOON:013:1,2017-12-01T18:54:00Z,27.4847,-97.3181,0.0,3.5,75.0,4.9,'11111222,11111222,11111222' 
TCOON,ioos:station:TCOON:013:1,2017-12-01T19:00:00Z,27.4847,-97.3181,0.0,3.5,68.0,4.6,'11111222,11111222,11111222' 
TCOON,ioos:station:TCOON:013:1,2017-12-01T19:06:00Z,27.4847,-97.3181,0.0,3.6,76.0,4.5,'11111222,11111222,11111222' 
TCOON,ioos:station:TCOON:013:1,2017-12-01T19:12:00Z,27.4847,-97.3181,0.0,3.2,64.0,4.5,'11111222,11111222,11111222' 
TCOON,ioos:station:TCOON:013:1,2017-12-01T19:18:00Z,27.4847,-97.3181,0.0,3.6,80.0,4.3,'1111122,1111122,1111122' 
TCOON,ioos:station:TCOON:013:1,2017-12-01T19:24:00Z,27.4847,-97.3181,0.0,3.4,82.0,4.6,'11111222,11111222,11111222' 
TCOON,ioos:station:TCOON:013:1,2017-12-01T19:30:00Z,27.4847,-97.3181,0.0,3.6,78.0,4.7,'11111222,11111222,11111222' 
TCOON,ioos:station:TCOON:013:1,2017-12-01T19:36:00Z,27.4847,-97.3181,0.0,4.1,73.0,4.5,'11111222,11111222,11111222' 
TCOON,ioos:station:TCOON:013:1,2017-12-01T19:42:00Z,27.4847,-97.3181,0.0,3.3,70.0,4.4,'11111222,11111222,11111222' 
TCOON,ioos:station:TCOON:013:1,2017-12-01T19:48:00Z,27.4847,-97.3181,0.0,3.6,79.0,4.9,'11111222,11111222,11111222' 
TCOON,ioos:station:TCOON:013:1,2017-12-01T19:54:00Z,27.4847,-97.3181,0.0,4.2,69.0,5.5,'11111222,11111222,11111222' 
TCOON,ioos:station:TCOON:013:1,2017-12-01T20:00:00Z,27.4847,-97.3181,0.0,4.2,69.0,5.1,'11111222,11111222,11111222' 
TCOON,ioos:station:TCOON:013:1,2017-12-01T20:06:00Z,27.4847,-97.3181,0.0,3.9,84.0,4.7,'11111222,11111222,11111222' 
TCOON,ioos:station:TCOON:013:1,2017-12-01T20:12:00Z,27.4847,-97.3181,0.0,4.5,70.0,5.6,'11111222,11111222,11111222' 
TCOON,ioos:station:TCOON:013:1,2017-12-01T20:18:00Z,27.4847,-97.3181,0.0,3.8,71.0,5.0,'1111122,1111122,1111122' 
TCOON,ioos:station:TCOON:013:1,2017-12-01T20:24:00Z,27.4847,-97.3181,0.0,4.5,65.0,5.2,'11111222,11111222,11111222' 
TCOON,ioos:station:TCOON:013:1,2017-12-01T20:30:00Z,27.4847,-97.3181,0.0,3.9,68.0,5.4,'11111222,11111222,11111222' 